www.pogodaiklimat.ru
Время
(UTC), дата
09 19.01
12 19.01
15 19.01
18 19.01
21 19.01
00 20.01
03 20.01
06 20.01
09 20.01
12 20.01
15 20.01
18 20.01
21 20.01
00 21.01
03 21.01
06 21.01
09 21.01
12 21.01
15 21.01
18 21.01
21 21.01
00 22.01
03 22.01
06 22.01
09 22.01
12 22.01
15 22.01
18 22.01
21 22.01
00 23.01
03 23.01
06 23.01
09 23.01
12 23.01
15 23.01
18 23.01
21 23.01
00 24.01
03 24.01
06 24.01
09 24.01
12 24.01
15 24.01
18 24.01
21 24.01
00 25.01
03 25.01
06 25.01
09 25.01
12 25.01
15 25.01
18 25.01
21 25.01
00 26.01
03 26.01
06 26.01
Ветер
(напр.,м/с)
Видим. Явления Облачность Т
(С)
Тd
(С)
f
(%)
Тe
(С)
Тes
(С)
Комфортность P
(гПа)
Po
(гПа)
Тmin
(С)
Tmax
(С)
R
(мм)
R24
(мм)
S
(см)
ЮЗ 2 20 км 4/4 600 м
[Cb calv]
+1.2 -7.8 51 -2 +1 прохладно 1021.1 1012.0
С 2 20 км 3/3 600 м
[Cb calv]
-0.1 -10.6 45 -3 -1 прохладно 1021.1 1012.0
ЮВ 2
{11}
20 км 3/3 1000 м
[Cb calv]
-3.0 -11.7 51 -6 -6 холодно 1021.2 1012.0
СЗ 2 20 км 1/1 1000 м
[Sc]
-3.4 -12.8 48 -7 -7 холодно 1022.6 1013.3 +1.6
СЗ 1 20 км 1/1 1000 м
[Sc]
-3.4 -10.7 57 -5 -5 холодно 1024.0 1014.7
З 1 20 км 5/3 1000 м
[Cb calv As trans]
-2.0 -10.0 54 -4 -4 холодно 1022.0 1012.8
В 1 20 км 10/8 600 м
[Cb calv Ac und]
-0.6 -8.3 56 -2 -2 прохладно 1023.9 1014.7 -3.5
СЗ 2 20 км 8/8 1000 м
[Cb calv]
-0.9 -7.0 63 -4 -4 холодно 1023.9 1014.7 -3.5 1
С 1 10 км слаб. ливневой снег 10/10 600 м
[Cb cap]
+1.8 -4.3 64 +1 +1 по сезону 1025.1 1016.0
СЗ 1 4000 м слаб. ливневой снег 10/10 300 м
[Cb cap]
+1.0 -1.6 83 -1 -1 прохладно 1025.1 1016.0
З 1 10 км слаб. ливневой снег 10/10 300 м
[Cb cap]
+0.7 -1.4 86 -1 -1 прохладно 1026.5 1017.3 0.3
СЗ 2 4000 м слаб. ливневой снег 10/10 300 м
[Cb cap]
+1.0 -1.2 85 -2 -2 прохладно 1026.4 1017.3 +2.0 0.4
З 1 20 км {ливн. снег} 10/10 600 м
[Cb cap]
+1.8 -0.8 83 0 0 по сезону 1027.8 1018.7
З 1 10 км слаб. ливневой дождь 10/10 600 м
[Cb cap]
+1.7 +0.1 89 -0 -0 по сезону 1027.8 1018.7
С 1 20 км {ливн. снег} 10/10 1000 м
[Cb calv]
+2.0 +0.7 91 0 0 по сезону 1026.4 1017.3 +0.7 0.7
СЗ 2 20 км {ливн. дождь} 10/10 1000 м
[Cb calv]
+3.1 +0.7 84 0 0 по сезону 1027.8 1018.7 +0.9 0.6 1
СЗ 1 10 км слаб. ливневой дождь 10/10 1000 м
[Cb cap]
+4.6 +1.3 79 +3 +3 по сезону 1027.7 1018.7
СЗ 1 20 км {ливн. дождь} 10/8 1000 м
[Sc Ac und]
+5.7 +2.5 80 +5 +5 по сезону 1027.7 1018.7
СЗ 1 20 км 8/8 1000 м
[Sc]
+4.7 +1.9 82 +3 +3 по сезону 1027.7 1018.7 0.1
СЗ 1 20 км 6/6 1000 м
[Sc]
+4.7 +2.2 84 +3 +3 по сезону 1027.7 1018.7 +5.8 0.1
СЗ 1 20 км 8/8 1000 м
[Sc]
+6.0 +3.2 82 +5 +5 по сезону 1027.7 1018.7
Ю 1 20 км 8/8 1000 м
[Sc]
+5.9 +2.7 80 +5 +5 по сезону 1027.7 1018.7
ЮЗ 1 20 км 9/9 1000 м
[Sc]
+8.0 +4.2 77 +7 +7 тепло 1026.2 1017.3 +4.0
Ю 2 20 км 9/8 600 м
[Sc Ac trans Ci sp]
+9.3 +3.9 69 +8 +8 тепло 1026.2 1017.3 +4.6
СЗ 1 20 км в посл. час ливневой дождь 10/10 600 м
[Cb cap]
+9.3 +3.9 69 +9 +9 тепло 1026.2 1017.3
ЮЗ 1 20 км {ливн. дождь} 10/9 600 м
[Cb cap Ac und]
+9.3 +4.9 74 +9 +9 тепло 1023.5 1014.7
СЗ 1 10 км слаб. ливневой дождь 10/10 600 м
[Cb cap]
+8.7 +5.6 81 +8 +8 тепло 1023.6 1014.7 0.1
ЮЗ 1 10 км слаб. ливневой дождь 10/10 600 м
[Cb cap]
+8.1 +7.3 95 +7 +7 тепло 1023.6 1014.7 +9.8 2
СЗ 1 10 км слаб. ливневой дождь 10/10 600 м
[Cb cap]
+7.5 +6.9 96 +6 +6 тепло 1023.6 1014.7
СЗ 1 10 км слаб. ливневой дождь 10/10 600 м
[Cb cap]
+7.5 +6.6 94 +6 +6 тепло 1022.2 1013.3
СЗ 1 20 км {ливн. дождь} 10/10 600 м
[Cb cap]
+7.7 +6.9 95 +7 +7 тепло 1020.9 1012.0 +7.4 5
С 2 20 км в посл. час ливневой дождь 9/8 1000 м
[Cb cap Ac As Ci sp]
+8.5 +7.0 90 +7 +7 тепло 1020.8 1012.0 +7.4 4
ЮЗ 2 20 км 9/6 1000 м
[Cb calv Ac As]
+11.8 +6.1 68 +11 +11 тепло 1020.7 1012.0
ЮВ 1 20 км в посл. час ливневой дождь 8/8 1000 м
[Cb cap]
+11.9 +6.4 69 +12 +13 тепло 1019.4 1010.7
С 1 10 км слаб. ливневой дождь 10/10 600 м
[Cb cap]
+9.3 +8.2 93 +9 +9 тепло 1019.5 1010.7 1
СЗ 1 10 км слаб. ливневой дождь 10/10 600 м
[Cb cap]
+8.6 +7.5 93 +8 +8 тепло 1019.5 1010.7 +12.0 1
штиль 0 20 км {ливн. дождь} 9/5 1000 м
[Cb calv Ac trans]
+8.5 +7.0 90 +8 +8 тепло 1019.5 1010.7
З 1 20 км {ливн. дождь} 3/3 1000 м
[Cb calv]
+7.8 +5.9 88 +7 +7 тепло 1018.1 1009.3
З 1 20 км 4/1 1000 м
[Sc Ac trans]
+6.7 +5.3 91 +6 +6 тепло 1016.9 1008.0 +6.7 1
СЗ 2 20 км 9/1 1000 м
[Sc Ac As Ci sp]
+8.4 +4.4 76 +7 +7 тепло 1016.8 1008.0 +6.4 0.5
В 3 20 км 9/1 1000 м
[Sc Ac As Ci sp]
+10.2 +7.3 82 +8 +8 тепло 1015.4 1006.7
В 2 20 км 9/1 1000 м
[Sc Ac As Ci sp]
+10.0 +7.4 84 +8 +9 тепло 1014.0 1005.3
штиль 0 20 км 10/0
[Ac As]
+9.3 +7.6 89 +8 +8 тепло 1014.1 1005.3
штиль 0 10 км слаб. ливневой дождь 10/3 1000 м
[Cb cap Ac As]
+8.4 +7.3 93 +7 +7 тепло 1015.5 1006.7 +11.0 0.5
СЗ 1 20 км {ливн. дождь} 10/8 1000 м
[Cb calv Ac trans]
+8.0 +7.2 95 +7 +7 тепло 1014.1 1005.3
штиль 0 20 км в посл. час ливневой дождь 8/6 1000 м
[Cb cap Ac trans]
+7.6 +7.0 96 +7 +7 тепло 1014.1 1005.3
штиль 0 20 км {ливн. дождь} 10/10 1000 м
[Cb cap]
+8.0 +7.6 97 +7 +7 тепло 1014.1 1005.3 +7.5 2
СЗ 2 20 км {ливн. дождь} 9/5 1000 м
[Cb calv Ac As Ci sp]
+8.7 +7.6 93 +7 +7 тепло 1012.8 1004.0 +7.5 2
ЮВ 1 20 км 9/6 1000 м
[Cb calv Ac trans Ci sp]
+12.0 +8.1 77 +12 +12 тепло 1012.7 1004.0
В 1 20 км 10/1 1000 м
[Sc Ac As]
+12.5 +7.6 72 +13 +13 тепло 1009.9 1001.3
В 3 20 км 10/0
[Ac As]
+10.3 +8.1 86 +8 +8 тепло 1008.7 1000.0 0.1
В 1 10 км слаб. ливневой дождь 10/10 600 м
[Cb cap]
+9.0 +8.4 96 +8 +8 тепло 1007.4 998.7 +12.8 2
ЮЗ 2
{10}
20 км в посл. час ливневой дождь 8/3 1000 м
[Cb calv Ac trans Ci sp]
+8.3 +7.5 95 +6 +6 тепло 1008.7 1000.0
ЮЗ 3 20 км 2 балла +6.5 +3.5 81 +3 +3 по сезону 1010.1 1001.3
Ю 2 20 км 5 баллов +6.5 +0.6 66 +5 +5 тепло 1012.8 1004.0 +5.7 12
З 1 20 км 10 баллов +6.9 +3.5 79 +6 +6 тепло 1014.1 1005.3 +5.7 10
Местоположение метеостанции Ялта (Крым, Россия): широта 44.48 долгота 34.17 высота над уровнем моря 72 м.
В архиве по умолчанию представлена погода в Ялте за последнюю неделю. Архивные данные за месяц целиком и за предыдущие месяцы, начиная с января 2011 года, Вы можете получить, выбрав интересующий диапазон дат из раскрывающегося списка и нажав кнопку "Найти!".
*Определитесь, кто Вы:
Внимание! Время в таблицах - всемирное. Для получения местного времени необходимо прибавить поправку, которая равна 3 ч.
Смотрите также архив погоды в соседних городах и на ближайших метеорологических станциях:
Партнеры нашего сайта:
Купить табак cobra
Stark Cobra 2016 с доставкой
vapetabakerka.ru

Ультразвуковые расходомеры в Ханты-Мансийске
khanty-mansiysk.us800.ru

Ультразвуковые теплосчетчики в Белгороде
belgorod.us800.ru

     
Пояснения к столбцам:
  • Ветер - указаны скорость ветра в м/с - средняя за 10 мин, порывы в срок и между сроками (в фигурных скобках) и направление, откуда дует ветер: С - северный,
  • СВ - северо-восточный, В - восточный, ЮВ - юго-восточный, Ю - южный, ЮЗ - юго-западный, З - западный, СЗ - северо-западный.
  • Видимость - горизонтальная дальность видимости в метрах или километрах. При видимости от 1 до 10 км при отсутствии осадков обычно наблюдается дымка, при ухудшении видимости до 1 км и менее - туман. В сухую погоду видимость может ухудшаться дымом, пылью или мглою.
  • Явления - указаны атмосферные явления, наблюдавшиеся в срок или в последний час перед сроком; фигурными скобками обозначены явления, наблюдавшиеся между сроками (за 1-3 часа до срока); квадратными скобками обозначены град или гололедные отложения с указанием их диаметра в мм.
  • Облачность - указаны через наклонную черту общая и нижняя облачность в баллах и высота нижней границы облаков в метрах; квадратными скобками обозначены формы облаков: Ci - перистые, Cs - перисто-слоистые, Cc - перисто-кучевые, Ac - высококучевые, As - высокослоистые, Sc - слоисто-кучевые, Ns - слоисто-дождевые, Cu - кучевые, Cb - кучево-дождевые. Подробнее классификацию облаков см. в Атласе облаков (PDF).
  • T - Температура воздуха - температура, измеренная на высоте 2 м над землей.
  • Td - Температура точки росы - температура, при понижении до которой содержащийся в воздухе водяной пар достигнет насыщения.
  • f - Относительная влажность воздуха - влажноcть воздуха, измеренная на высоте 2 м над землей.
  • Te - Эффективная температура - температура, которую ощущает одетый по сезону человек в тени. Характеристика душности погоды. При расчете учитывается влияние влажности воздуха и скорости ветра на теплоощущения человека.
  • Tes - Эффективная температура на солнце - температура, которую ощущает человек, с поправкой на солнечный нагрев. Характеристика знойности погоды. Зависит от высоты солнца над горизонтом, облачности и скорости ветра. Ночью, в пасмурную погоду, а также при ветре 12 м/с и более поправка равна нулю.
  • P - Атмосферное давление - приведенное к уровню моря атмосферное давление.
  • Po - Атмосферное давление - измеренное на уровне метеостанции атмосферное давление.
  • Tmin - Минимальная температура - минимум температуры воздуха на высоте 2 м над землей.
  • Tmax - Максимальная температура - максимум температуры воздуха на высоте 2 м над землей.
  • R - Количество осадков - Количество выпавших осадков за период времени, мм. При наведении курсора мыши на число - период времени, за который выпало указанное количество осадков.
  • R24 - Количество осадков - Количество выпавших осадков за 24 часа, мм.
  • S - Снежный покров - Высота снежного покрова, см. При наведении курсора мыши на число - состояние снежного покрова и степень покрытия местности в баллах.